User: anonymous   Login
Location: Asni�res
(49.1337°N, 2.3555°E)
Time: 18:19:47
(UTC+00:00)
Language:

Cosmos 1470 - Orbit

View from above orbital plane
View from above orbital plane
View from above satellite
View from above satellite

Ground track
Ground track

The orbit data is extracted from the following two-line orbital elements,

1 14147U 83061A   22024.94109857  .00000881  00000-0  49405-4 0  9991
2 14147  82.4821 184.9215 0014045 228.4171 131.5857 15.12049176858965
Epoch (UTC): 24 January 2022 22:35:10
Eccentricity: 0.0014045
inclination: 82.4821°
perigee height: 520 km
apogee height: 539 km
right ascension of ascending node: 184.9215°
argument of perigee: 228.4171°
revolutions per day: 15.12049176
mean anomaly at epoch: 131.5857°
orbit number at epoch: 85896

The dashed part of the orbit path shows where the satellite is in the earth's shadow,  

DLR